Dewpoint
30 17 16 15 20 18 19 19 15 14 19 21 22 17 12 12 12 14 12 14 19 17 9 9 8 7 8 8 7 5 3 2 1 1 3 8 5 6 9 9 8 4 2 7 4 2 -1 -2 -2 6 3 1 0 1 2 3 4 5 6 7 4 5 6 8 7 7 7 7 7 7 5 6 2 4 5 2 7 7 7 11 12 13 12 12 15 16
22 16 18 21 18 15 19 22 17 19 23 22 17 14 9 13 6 9 10 17 19 17 9 8 5 5 5 5 5 5 3 2 1 3 5 5 5 7 9 7 5 2 4 -0 -4 -3 -4 -4 7 4 2 7 -1 2 3 4 6 7 6 4 2 1 1 4 6 10 11 10 9 8 7 5 6 5 4 4 3 7 10 12 12 13 12 13 14 16
17 17 21 18 18 26 21 25 15 18 21 19 12 12 11 8 13 13 21 19 13 20 12 9 4 3 3 3 3 3 3 6 6 5 6 5 8 8 5 1 -0 -4 -6 -5 -5 -3 -4 -0 4 1 -0 -2 -1 2 3 5 6 6 6 3 1 0 -0 -0 2 5 7 8 10 10 10 8 7 7 7 6 9 9 9 8 12 12 10 11 12 12
18 18 11 18 23 17 23 18 16 17 21 14 17 10 8 12 12 10 12 16 12 15 13 10 2 3 3 4 4 7 6 7 10 9 11 14 8 7 2 -1 -2 -4 -4 -6 -6 -5 -4 -1 1 -1 -1 -2 3 4 4 4 3 2 2 -2 -3 -2 -2 -1 0 6 4 6 8 9 9 9 9 8 11 8 8 8 7 7 8 8 8 11 12 13
16 21 12 25 24 17 20 19 15 14 14 20 19 11 10 12 11 12 11 13 16 22 21 8 6 5 4 2 4 5 7 7 7 6 9 9 15 11 8 3 0 -4 -7 -6 -4 -5 -4 -1 0 -3 2 3 4 4 4 4 3 1 -1 -1 -2 -2 -1 0 3 2 4 6 4 3 5 8 9 10 10 9 7 6 8 9 9 7 11 12 12 12
21 24 24 25 21 17 20 17 17 14 12 13 19 12 11 12 13 13 14 14 8 11 16 14 -1 -3 3 2 1 4 5 4 5 9 10 8 7 7 4 1 -1 -5 -8 -7 -3 -4 -5 -2 0 -1 2 3 3 2 1 0 1 0 -1 -2 -3 -2 -0 3 2 1 7 10 9 8 3 4 8 11 12 11 11 11 8 6 6 7 7 9 11 11
24 23 24 23 21 19 21 18 20 17 13 12 13 16 15 13 15 16 15 14 9 5 12 17 -2 0 3 1 1 5 5 5 9 9 8 6 5 4 0 -5 -6 -5 -7 -5 -3 -5 -6 -4 -1 1 1 2 3 3 1 -1 1 0 -1 -3 -3 -3 -0 2 -1 -2 11 8 8 9 11 9 12 11 11 10 10 11 12 14 11 11 8 8 7 6
29 23 22 24 17 17 15 10 17 12 15 11 17 15 16 15 14 15 15 15 9 12 14 12 4 -2 -1 1 5 6 6 7 8 9 8 6 4 2 -1 -4 -6 -9 -8 -5 -4 -5 -5 -4 -2 1 -0 -1 -1 -1 -1 -1 -0 -1 -2 -3 -3 -3 -1 -0 -1 -1 5 4 6 6 7 12 11 9 9 9 9 10 11 8 7 7 7 6 6 6
27 24 24 24 20 14 11 13 18 18 11 13 17 17 15 15 13 15 13 9 9 4 8 -2 6 -3 -2 1 7 7 4 4 6 9 8 6 3 2 -0 -5 -6 -8 -8 -6 -6 -5 -4 -3 2 1 -2 -3 -3 -2 -1 -1 -1 -2 -3 -2 -3 -3 -2 -2 -3 -0 -0 1 1 5 4 3 4 6 8 9 9 8 9 8 7 6 6 6 5 6
27 24 26 27 17 10 18 13 16 20 13 19 16 18 17 17 18 17 10 9 5 4 4 -5 1 -2 -2 -1 5 6 5 5 7 7 7 5 2 -0 -1 -5 -9 -9 -7 -4 -6 -6 -2 2 2 1 -1 -3 -2 -1 1 -3 -4 -5 -4 -3 -3 -3 -3 -3 -3 -1 -1 -1 -0 0 2 2 1 3 5 6 5 6 5 5 5 6 6 6 5 5
22 31 33 26 20 19 15 16 21 19 18 18 20 12 10 14 9 9 5 4 8 4 -1 2 -0 -2 -1 -4 -2 -1 0 7 7 6 6 3 -0 -2 -3 -6 -8 -9 -6 -5 -6 -4 1 2 2 0 -2 -2 -2 -2 -3 -3 -5 -5 -4 -4 -4 -4 -4 -3 -2 -1 -1 -1 -0 0 -0 -0 0 1 2 2 2 3 3 3 3 4 4 5 4 5
30 28 30 25 27 25 21 17 22 22 22 21 10 5 5 8 5 1 6 6 1 2 -3 -2 0 7 -2 -3 5 8 8 7 5 5 3 1 -2 -3 -5 -9 -10 -10 -6 -5 -5 -1 2 1 -1 -3 -3 -3 -2 -2 -4 -5 -4 -2 -3 -4 -6 -6 -5 -5 -2 -2 -2 -3 -4 -4 -3 -3 -3 -3 -3 -3 -3 -1 -0 0 1 2 2 1 2 1
22 20 23 28 24 27 17 14 14 23 20 10 6 4 7 3 4 2 5 2 0 2 1 0 4 -1 -4 -1 7 5 7 5 6 7 2 1 -2 -4 -7 -12 -8 -8 -7 -5 -4 0 1 -1 -2 -3 -3 -3 -2 -4 -6 -2 -4 -4 -4 -6 -7 -7 -7 -6 -5 -4 -4 -4 -5 -5 -4 -4 -2 -3 -4 -4 -3 -3 -2 -1 -1 -1 0 0 -0 -2
17 23 23 25 27 23 17 6 5 9 11 6 3 6 6 0 -0 -2 1 2 5 3 3 3 6 1 -2 -1 4 2 4 5 2 2 1 -1 -3 -7 -8 -11 -11 -5 -5 -5 -2 -1 -0 -1 -3 -3 -3 -3 -3 -5 -4 -5 -4 -5 -6 -6 -7 -8 -7 -6 -5 -5 -4 -5 -4 -4 -3 -3 -3 -4 -3 -2 -1 -1 -0 1 -0 -0 -1 -1 -2 -3
15 14 19 22 16 20 16 10 14 13 11 3 13 1 7 4 -2 -2 2 -0 1 3 5 5 1 -2 -3 4 6 3 5 4 1 -1 -1 2 -2 -4 -8 -13 -13 -8 -7 -5 -3 -1 -2 -2 -3 -2 -2 -3 -4 -5 -5 -5 -6 -6 -6 -5 -7 -8 -7 -6 -5 -5 -6 -5 -5 -5 -4 -3 -3 -2 -1 -1 2 -0 -1 -1 -2 -1 -1 -1 -2 -0
18 14 21 23 20 17 20 21 20 19 14 9 11 11 8 5 4 5 4 4 4 5 4 1 -0 1 -1 6 8 5 2 3 4 3 3 -3 -5 -7 -12 -12 -9 -6 -5 -6 -3 -1 -3 -3 -3 -2 -3 -4 -4 -4 -5 -6 -6 -6 -6 -7 -6 -7 -7 -7 -6 -7 -7 -6 -6 -5 -5 -5 -3 -0 -1 -1 -2 -2 -3 -3 -3 -2 -1 -1 -1 -2
15 11 22 24 21 10 12 21 20 20 6 6 9 7 4 9 4 7 7 5 4 4 3 1 -1 0 4 3 5 4 4 3 2 1 -3 -7 -10 -11 -15 -15 -13 -7 -7 -6 -4 -2 -3 -3 -3 -3 -5 -4 -4 -6 -7 -7 -7 -8 -9 -9 -8 -7 -8 -8 -8 -8 -7 -6 -6 -6 -6 -5 -4 -4 -4 -5 -6 -6 -4 -3 -4 -4 -4 -4 -4 -4
13 11 24 21 18 15 18 20 22 21 18 10 8 2 15 11 10 5 2 3 3 -0 -1 -1 2 2 2 0 4 4 3 0 -0 -8 -9 -11 -11 -17 -18 -18 -10 -8 -7 -5 -4 -3 -1 -2 -3 -5 -4 -5 -6 -6 -8 -8 -7 -7 -7 -9 -8 -8 -9 -8 -9 -8 -8 -7 -7 -7 -6 -5 -5 -5 -6 -6 -5 -6 -6 -6 -6 -6 -7 -7 -7 -5
18 15 19 18 20 21 24 20 17 19 21 7 5 15 7 3 6 2 2 -2 -2 -2 0 0 2 4 5 4 6 3 2 0 -5 -10 -10 -12 -15 -18 -22 -19 -12 -8 -7 -6 -5 -4 -3 -1 -1 -5 -6 -5 -7 -7 -9 -8 -8 -7 -10 -9 -8 -9 -9 -8 -9 -9 -8 -7 -9 -8 -6 -6 -6 -6 -6 -5 -4 -5 -5 -5 -6 -6 -6 -6 -5 -3
18 13 14 19 15 17 17 16 14 12 16 18 15 12 14 5 5 3 2 4 3 0 -1 -1 2 1 -4 3 -1 -3 -3 -2 -10 -11 -12 -13 -15 -19 -23 -22 -15 -9 -8 -7 -7 -5 -3 -1 -4 -6 -5 -7 -9 -10 -9 -10 -10 -10 -9 -9 -9 -9 -10 -10 -10 -9 -10 -9 -9 -9 -8 -8 -7 -5 -6 -6 -6 -6 -6 -6 -5 -5 -5 -4 -1 -3
18 10 13 14 20 17 9 10 6 5 11 9 10 10 9 7 6 6 6 4 1 -1 -0 0 -1 1 0 0 -5 -3 -5 -9 -11 -11 -13 -14 -15 -21 -22 -22 -14 -10 -9 -7 -6 -6 -2 -5 -6 -6 -8 -9 -11 -10 -10 -12 -12 -11 -10 -10 -11 -12 -11 -11 -10 -10 -11 -10 -11 -9 -9 -8 -7 -7 -6 -7 -7 -5 -5 -4 -2 -4 -4 -2 -2 -1
15 13 14 12 10 9 12 14 14 7 6 6 9 9 8 7 5 3 2 7 3 3 -1 -1 -1 3 4 1 -0 -9 -11 -10 -11 -14 -14 -13 -15 -21 -24 -19 -14 -10 -7 -6 -6 -6 -6 -6 -7 -6 -7 -9 -11 -12 -13 -13 -11 -9 -11 -11 -11 -11 -11 -11 -10 -11 -12 -11 -11 -10 -9 -8 -8 -8 -7 -6 -5 -4 -4 -4 -4 -4 -2 -2 -1 -0
14 14 11 13 11 14 6 8 15 16 15 13 6 7 7 9 7 4 0 2 4 4 3 4 1 3 7 5 -8 -10 -9 -9 -10 -13 -13 -14 -16 -22 -25 -15 -12 -8 -7 -5 -5 -6 -6 -6 -6 -6 -6 -8 -11 -12 -13 -13 -12 -10 -11 -10 -9 -10 -12 -11 -12 -12 -12 -12 -11 -11 -10 -9 -8 -7 -7 -5 -5 -5 -4 -4 -4 -2 -1 -1 0 1
23 15 16 14 15 12 12 14 9 12 16 12 6 7 9 11 9 7 4 7 4 3 3 4 2 4 -1 3 -4 -5 -4 -6 -11 -12 -13 -14 -17 -22 -23 -22 -16 -13 -8 -8 -7 -7 -6 -5 -6 -6 -7 -9 -11 -12 -13 -13 -12 -11 -10 -9 -10 -11 -12 -12 -13 -12 -12 -12 -11 -11 -11 -10 -8 -8 -7 -6 -6 -5 -4 -3 -2 -0 -0 -0 0 1
17 12 9 11 13 11 5 6 8 12 12 6 9 6 8 10 8 6 7 5 3 5 4 1 -1 3 4 2 1 1 -3 -4 -8 -11 -13 -16 -18 -22 -25 -22 -17 -12 -10 -8 -7 -7 -5 -5 -5 -6 -7 -9 -10 -11 -11 -12 -11 -10 -9 -11 -11 -11 -12 -12 -12 -12 -12 -11 -11 -11 -10 -9 -9 -8 -7 -6 -5 -5 -4 -2 -1 -0 -0 0 1 1
18 17 12 10 9 9 9 10 11 13 11 7 11 6 8 11 10 8 6 6 4 5 5 3 3 5 6 6 5 2 1 -1 -7 -10 -10 -16 -21 -24 -26 -24 -16 -13 -10 -8 -7 -5 -5 -5 -6 -6 -7 -9 -9 -9 -11 -11 -10 -10 -11 -11 -12 -11 -11 -11 -11 -11 -10 -10 -10 -10 -10 -9 -8 -8 -7 -6 -5 -4 -2 -1 -1 -0 -0 1 1 2
16 18 10 9 11 11 14 14 15 17 10 11 9 9 10 12 13 9 7 5 5 5 5 6 7 6 7 7 5 6 5 -0 -8 -10 -12 -15 -21 -24 -24 -22 -16 -12 -10 -8 -5 -5 -6 -6 -6 -6 -7 -7 -8 -8 -11 -10 -11 -11 -11 -12 -12 -12 -11 -11 -11 -10 -11 -11 -11 -10 -10 -10 -9 -8 -7 -6 -5 -3 -2 -1 -1 -0 0 2 2 2
16 16 16 16 15 13 12 11 12 14 10 10 11 12 12 12 11 8 7 6 7 5 3 6 7 7 7 7 8 8 7 -3 -9 -9 -11 -16 -21 -24 -25 -20 -3 -10 -9 -7 -6 -5 -6 -6 -7 -7 -8 -8 -7 -8 -9 -10 -10 -11 -12 -13 -12 -12 -11 -11 -11 -10 -10 -11 -11 -11 -10 -10 -9 -7 -6 -5 -4 -3 -1 -0 -0 0 1 3 3 3
13 13 18 12 12 14 13 11 11 11 10 10 11 10 13 12 11 8 8 9 8 5 3 7 6 7 7 7 8 8 4 -10 -10 -8 -11 -17 -22 -24 -23 -20 -15 -11 -8 -6 -5 -6 -6 -6 -7 -6 -7 -8 -8 -8 -9 -10 -11 -12 -12 -13 -13 -12 -11 -10 -10 -11 -12 -11 -11 -11 -10 -8 -7 -7 -6 -4 -4 -2 -1 -0 0 2 2 3 4 5
15 16 17 15 14 12 12 13 14 12 11 10 13 10 8 12 12 11 10 10 9 8 8 8 7 7 7 8 9 9 -6 -10 -8 -8 -11 -18 -21 -19 -22 -20 -14 -10 -7 -5 -6 -6 -6 -7 -6 -6 -7 -8 -8 -8 -8 -10 -12 -12 -12 -12 -12 -11 -11 -10 -11 -12 -12 -12 -11 -10 -9 -7 -7 -6 -5 -4 -4 -2 -1 1 1 2 3 3 4 5
16 14 16 13 12 14 14 16 15 14 11 8 7 7 8 8 9 12 12 11 12 10 10 10 9 9 10 10 10 3 -11 -9 -8 -8 -10 -16 -22 -20 -20 -17 -13 -8 -6 -6 -5 -6 -6 -6 -6 -6 -6 -6 -7 -8 -9 -10 -11 -11 -11 -11 -11 -11 -11 -12 -12 -13 -13 -12 -10 -9 -9 -7 -7 -6 -5 -4 -3 -1 -1 -0 1 2 2 3 4 4
12 14 15 14 12 12 13 15 15 14 12 10 8 7 5 6 8 8 11 12 11 10 10 9 9 9 10 8 0 -6 -8 -8 -7 -6 -10 -17 -21 -18 -19 -16 -10 -6 -6 -5 -5 -5 -5 -6 -7 -7 -6 -6 -7 -8 -10 -10 -11 -11 -11 -11 -11 -12 -12 -12 -13 -13 -12 -11 -10 -8 -8 -7 -7 -5 -4 -3 -2 -1 -0 0 1 1 2 2 3 4
15 15 15 14 11 11 15 14 11 11 10 11 11 10 8 7 6 7 9 11 10 9 9 7 8 9 9 7 2 1 -3 -5 -5 -5 -10 -16 -20 -20 -19 -13 -9 -6 -7 -5 -4 -4 -6 -7 -8 -6 -6 -6 -8 -9 -10 -11 -11 -11 -10 -11 -13 -13 -13 -13 -13 -12 -11 -10 -9 -9 -8 -7 -6 -4 -3 -3 -3 -2 -1 -0 -0 0 1 2 3 4
15 14 15 13 8 11 11 11 11 11 11 11 7 17 14 8 7 6 7 7 8 8 9 9 8 7 6 6 5 4 -1 -3 -4 -6 -12 -14 -16 -18 -18 -12 -8 -5 -4 -4 -5 -5 -7 -7 -6 -5 -5 -7 -8 -9 -10 -9 -10 -10 -11 -12 -12 -13 -13 -13 -12 -11 -10 -9 -9 -8 -7 -6 -5 -4 -4 -4 -3 -2 -1 -1 -1 -0 1 2 4 4
15 14 16 11 9 11 13 13 12 8 13 14 7 7 6 5 5 7 7 8 7 7 7 8 7 7 7 7 5 0 -3 -4 -5 -8 -12 -15 -17 -19 -14 -10 -6 -5 -4 -5 -6 -6 -7 -7 -6 -6 -6 -8 -8 -8 -9 -10 -10 -12 -12 -13 -13 -13 -13 -12 -11 -10 -10 -9 -9 -8 -6 -6 -5 -5 -5 -4 -3 -2 -2 -2 -1 -0 1 2 3 4
17 17 15 12 13 14 11 12 5 8 13 16 5 6 11 6 4 4 6 6 6 6 6 6 6 7 6 5 2 -1 -2 -6 -12 -13 -14 -16 -17 -15 -11 -8 -7 -6 -5 -6 -7 -7 -8 -8 -7 -7 -7 -6 -8 -9 -9 -10 -11 -11 -11 -12 -13 -12 -11 -11 -11 -11 -10 -9 -8 -7 -7 -6 -5 -5 -5 -4 -3 -3 -2 -2 -1 -0 1 2 3 5
17 14 14 12 12 9 11 10 11 12 11 11 5 4 6 4 4 4 6 10 8 7 6 6 6 7 6 4 0 -0 -10 -17 -15 -15 -14 -14 -17 -14 -11 -8 -9 -7 -6 -7 -8 -8 -9 -8 -8 -7 -7 -8 -8 -8 -9 -10 -10 -10 -11 -12 -12 -11 -10 -10 -10 -10 -9 -8 -8 -7 -7 -6 -6 -5 -5 -4 -3 -3 -2 -2 -1 -0 1 2 3 4
17 12 12 11 10 12 10 9 10 10 8 13 6 12 7 7 6 9 4 8 9 8 7 6 6 6 4 1 1 -5 -18 -10 -8 -9 -16 -16 -14 -12 -11 -11 -9 -8 -8 -8 -9 -9 -8 -8 -7 -7 -7 -7 -7 -9 -10 -11 -10 -10 -11 -11 -11 -11 -11 -10 -10 -10 -9 -8 -8 -7 -6 -6 -5 -5 -4 -4 -4 -3 -2 -1 -0 0 2 2 3 4
15 13 11 13 12 12 9 7 7 5 9 10 5 8 11 7 9 8 5 7 7 6 7 6 5 3 2 1 0 -14 -14 -10 -6 -3 -11 -12 -12 -15 -17 -13 -10 -8 -8 -8 -8 -8 -7 -8 -8 -6 -6 -8 -9 -10 -10 -10 -10 -10 -11 -11 -11 -10 -10 -10 -10 -9 -9 -8 -8 -7 -6 -5 -5 -5 -4 -4 -3 -3 -2 -1 -0 1 3 4 5 5
11 13 13 11 7 11 9 7 8 9 13 9 7 8 5 7 6 2 7 7 1 3 4 3 2 1 1 2 -2 -8 -6 -8 -3 -11 -18 -19 -26 -23 -19 -13 -9 -8 -8 -8 -8 -8 -8 -6 -7 -7 -7 -9 -10 -10 -10 -9 -10 -10 -10 -10 -11 -10 -10 -10 -9 -9 -9 -8 -7 -6 -6 -5 -5 -5 -4 -4 -3 -2 -1 -0 0 1 2 3 5 6
12 12 13 11 13 14 15 12 12 13 16 12 8 5 5 6 6 6 6 14 2 1 1 1 1 1 2 3 -4 -3 -4 -4 -5 -21 -27 -27 -25 -23 -17 -11 -8 -8 -7 -8 -8 -2 -7 -8 -6 -8 -10 -10 -10 -10 -10 -10 -10 -10 -10 -10 -10 -10 -10 -10 -10 -9 -8 -7 -7 -7 -7 -6 -6 -5 -4 -3 -3 -1 -0 0 1 2 3 4 5 6
16 12 13 11 11 12 13 12 12 13 14 8 5 5 5 9 8 8 10 5 4 3 1 1 1 2 3 2 -3 -5 -5 -11 -13 -21 -24 -25 -22 -21 -16 -12 -9 -7 -6 -4 -4 -4 -8 -8 -8 -9 -9 -9 -10 -9 -10 -10 -10 -10 -10 -10 -10 -10 -10 -9 -9 -8 -8 -9 -9 -8 -7 -7 -6 -5 -4 -3 -2 -1 -1 1 2 3 3 4 6 7
18 12 16 14 13 12 9 8 10 7 10 7 6 3 5 8 13 13 8 6 6 5 4 3 3 3 2 0 -3 -6 -9 -14 -19 -20 -22 -23 -22 -19 -15 -11 -7 -6 -6 -7 -7 -7 -7 -8 -8 -8 -8 -9 -10 -9 -9 -10 -10 -10 -9 -10 -10 -9 -9 -8 -8 -9 -9 -9 -8 -8 -8 -7 -7 -6 -4 -3 -2 -1 -0 1 1 2 4 5 6 7
16 12 14 17 16 13 12 7 10 17 9 7 8 11 7 8 11 13 11 10 10 7 5 5 4 3 -0 -3 -5 -8 -11 -13 -16 -18 -18 -18 -18 -15 -11 -10 -7 -5 -6 -6 -6 -7 -7 -7 -6 -6 -8 -9 -9 -9 -9 -9 -9 -9 -10 -10 -9 -8 -8 -8 -9 -9 -9 -9 -9 -9 -9 -8 -6 -6 -5 -3 -1 -0 -0 -0 1 2 3 4 5 6
16 16 17 16 16 16 14 17 18 14 8 6 8 11 12 11 10 10 9 9 8 7 5 4 4 2 -1 -5 -7 -9 -10 -11 -14 -15 -17 -16 -14 -11 -10 -8 -6 -5 -5 -5 -7 -7 -6 -5 -6 -7 -8 -9 -10 -10 -8 -8 -9 -10 -10 -10 -8 -8 -8 -9 -9 -9 -10 -10 -10 -10 -9 -8 -7 -6 -4 -2 -1 -1 -0 0 1 2 3 3 4 6
15 13 9 10 17 16 14 15 17 15 15 14 8 10 10 11 11 10 8 7 8 8 7 5 4 2 -4 -9 -10 -10 -9 -10 -12 -13 -14 -11 -11 -8 -8 -7 -6 -5 -4 -5 -7 -6 -8 -6 -8 -7 -7 -9 -9 -9 -8 -9 -8 -10 -10 -9 -8 -8 -9 -9 -10 -10 -11 -11 -10 -10 -10 -9 -8 -5 -4 -2 -1 -0 0 1 2 2 2 3 4 5
12 10 10 13 12 12 12 13 12 12 13 13 13 13 11 10 11 10 8 7 8 7 7 5 3 0 -5 -13 -14 -10 -10 -11 -11 -11 -10 -7 -8 -7 -6 -4 -4 -3 -4 -5 -6 -5 -6 -7 -6 -7 -7 -8 -9 -8 -9 -8 -8 -8 -8 -8 -8 -9 -9 -10 -11 -11 -11 -12 -12 -11 -9 -8 -6 -5 -4 -3 -2 -1 0 1 2 2 2 3 4 5
15 10 9 10 10 9 10 11 13 14 14 15 15 14 14 13 10 9 8 8 8 7 7 6 1 -1 -7 -12 -14 -13 -12 -13 -10 -10 -8 -4 -3 -3 -2 -1 -1 -2 -3 -4 -6 -5 -6 -6 -7 -7 -8 -8 -8 -8 -8 -8 -8 -8 -8 -8 -8 -9 -10 -11 -11 -12 -13 -13 -12 -10 -9 -7 -5 -4 -4 -3 -2 -2 -1 0 2 2 2 4 5 7
15 16 14 11 9 9 10 10 10 11 11 12 13 13 13 13 11 9 8 7 7 6 6 4 1 -1 -5 -8 -13 -14 -13 -11 -9 -7 -4 1 1 -0 0 0 0 -1 -2 -4 -5 -5 -5 -6 -6 -7 -7 -8 -8 -8 -9 -9 -9 -8 -8 -9 -9 -9 -11 -12 -11 -12 -13 -13 -11 -11 -8 -6 -6 -5 -4 -4 -2 -1 -0 0 1 3 4 7 8 9
13 14 11 11 13 14 13 13 16 18 20 20 19 15 13 12 11 9 7 7 7 6 6 4 1 -3 -5 -8 -12 -14 -11 -8 -8 -5 -4 1 1 2 2 1 1 -1 -3 -3 -4 -5 -5 -5 -6 -7 -7 -8 -8 -9 -9 -9 -9 -9 -9 -9 -9 -10 -11 -12 -12 -13 -13 -12 -12 -10 -9 -7 -7 -6 -4 -4 -3 -1 -0 3 8 6 5 6 10 13
12 13 13 16 16 16 15 17 19 18 18 17 17 11 9 10 9 8 7 7 7 6 6 4 2 -1 -5 -7 -12 -12 -12 -7 -7 -5 -0 2 1 2 1 0 0 -1 -2 -4 -5 -5 -5 -6 -6 -7 -7 -8 -9 -9 -9 -9 -9 -9 -10 -10 -9 -10 -11 -12 -13 -13 -13 -12 -12 -10 -9 -7 -6 -6 -5 -3 -2 -2 -1 -1 1 7 9 10 11 12